This is the latest recevied weather packets stored in our database for station/object NC4M. If no packets are shown the sender has not sent any weather packets the latest 10 day(s).
| Time | Temp. | Humidity | Pressure | Rain* | Wind** | Luminosity | Snow |
|---|---|---|---|---|---|---|---|
| 1777386939 | 15° C | 68% | 1017.7 hPa | 0 mm | - | 92 W/m² | - |
| 1777386637 | 15° C | 69% | 1017.7 hPa | 0 mm | - | 187 W/m² | - |
| 1777386334 | 15° C | 69% | 1017.6 hPa | 0 mm | - | 117 W/m² | - |
| 1777386031 | 15° C | 74% | 1017.7 hPa | 0 mm | - | 143 W/m² | - |
| 1777385728 | 14.44° C | 71% | 1017.6 hPa | 0 mm | - | 296 W/m² | - |
| 1777385425 | 13.89° C | 74% | 1017.9 hPa | 0 mm | - | 187 W/m² | - |
| 1777385121 | 13.89° C | 73% | 1017.9 hPa | 0 mm | - | 163 W/m² | - |
| 1777384817 | 13.89° C | 75% | 1017.7 hPa | 0 mm | - | 130 W/m² | - |
| 1777384514 | 13.89° C | 72% | 1017.8 hPa | 0 mm | - | 99 W/m² | - |
| 1777384209 | 13.89° C | 73% | 1017.6 hPa | 0 mm | - | 94 W/m² | - |
| 1777383905 | 13.89° C | 72% | 1017.8 hPa | 0 mm | - | 234 W/m² | - |
| 1777383601 | 14.44° C | 70% | 1017.7 hPa | 0 mm | - | 95 W/m² | - |
| 1777383298 | 14.44° C | 75% | 1017.5 hPa | 0 mm | - | 103 W/m² | - |
| 1777382994 | 13.89° C | 75% | 1017.1 hPa | 0 mm | - | 181 W/m² | - |
| 1777382691 | 13.33° C | 77% | 1017.3 hPa | 0 mm | - | 158 W/m² | - |
| 1777382386 | 12.78° C | 77% | 1016.9 hPa | 0 mm | - | 217 W/m² | - |
| 1777382083 | 12.78° C | 79% | 1016.9 hPa | 0 mm | - | 48 W/m² | - |
| 1777381780 | 12.78° C | 78% | 1016.7 hPa | 0 mm | - | 43 W/m² | - |
| 1777381478 | 12.78° C | 78% | 1016.6 hPa | 0 mm | - | 41 W/m² | - |
| 1777381175 | 12.78° C | 78% | 1016.8 hPa | 0 mm | - | 40 W/m² | - |
| 1777380872 | 12.78° C | 79% | 1016.8 hPa | 0 mm | - | 38 W/m² | - |
| 1777380570 | 12.78° C | 80% | 1016.8 hPa | 0 mm | - | 36 W/m² | - |
| 1777380265 | 12.22° C | 79% | 1016.5 hPa | 0 mm | - | 35 W/m² | - |
| 1777379962 | 12.22° C | 81% | 1016.4 hPa | 0 mm | - | 33 W/m² | - |
| 1777379658 | 12.22° C | 81% | 1016.1 hPa | 0 mm | - | 31 W/m² | - |
* Rain latest hour (hover to see other rain measurements)
** Current wind speed in m/s (hover to see current wind gust speed)